EW3693 Weather Reports


Display with metric or nautical units.
time (UTC)temp
F
wind
direction
speed
MPH
gust
MPH
rain 1hr
in
rain 24hr
in
rain mn
in
humidity
%
barometer
mb
20210226204532 38 293 11.0 15.0 0.00 0.00 0.00 93 1029.8
20210226203532 38 293 13.0 18.0 0.00 0.00 0.00 93 1029.7
20210226202535 38 293 11.0 15.0 0.00 0.00 0.00 93 1029.6
20210226201539 37 293 10.0 12.0 0.00 0.00 0.00 93 1029.5
20210226200531 38 270 8.0 11.0 0.00 0.00 0.00 92 1029.5
20210226195543 38 270 9.0 11.0 0.00 0.00 0.00 92 1029.4
20210226194537 38 293 9.0 12.0 0.00 0.00 0.00 92 1029.4
20210226193529 38 293 7.0 11.0 0.00 0.00 0.00 91 1029.3
20210226192535 39 293 9.0 12.0 0.00 0.00 0.00 91 1029.1
20210226191532 39 293 11.0 13.0 0.00 0.00 0.00 91 1029.1
20210226190543 39 270 11.0 14.0 0.00 0.00 0.00 91 1029.1
20210226185537 40 293 10.0 12.0 0.00 0.00 0.00 91 1029.0
20210226184529 40 293 9.0 12.0 0.00 0.00 0.00 91 1029.0
20210226183538 40 293 8.0 11.0 0.00 0.00 0.00 90 1029.0
20210226182616 40 270 9.0 11.0 0.00 0.00 0.00 89 1028.8
20210226181554 40 270 8.0 10.0 0.00 0.00 0.00 88 1028.8
20210226180533 41 293 9.0 11.0 0.00 0.00 0.00 88 1028.7
20210226175535 41 293 10.0 12.0 0.00 0.00 0.00 87 1028.5
20210226174534 42 293 9.0 11.0 0.00 0.00 0.00 84 1028.6
20210226173530 43 293 13.0 17.0 0.00 0.00 0.00 83 1028.5
20210226172732 43 293 12.0 17.0 0.00 0.00 0.00 83 1028.4
20210226171534 43 293 12.0 16.0 0.00 0.00 0.00 84 1028.3
20210226170532 43 293 12.0 15.0 0.00 0.00 0.00 83 1028.1
20210226165532 44 293 11.0 14.0 0.00 0.00 0.00 82 1028.0
20210226164529 44 293 12.0 16.0 0.00 0.00 0.00 81 1027.8
20210226163534 45 293 11.0 17.0 0.00 0.00 0.00 79 1027.6
20210226162615 46 293 14.0 20.0 0.00 0.00 0.00 78 1027.4
20210226161530 46 293 15.0 20.0 0.00 0.00 0.00 79 1027.3
20210226160531 46 293 15.0 24.0 0.00 0.00 0.00 80 1027.3
20210226155535 47 293 12.0 16.0 0.00 0.00 0.00 80 1027.3
20210226154532 47 293 14.0 18.0 0.00 0.00 0.00 79 1027.0
20210226153531 48 293 14.0 20.0 0.00 0.00 0.00 77 1027.2
20210226152636 49 293 14.0 20.0 0.00 0.00 0.00 78 1027.3
20210226151529 50 293 17.0 22.0 0.00 0.00 0.00 76 1027.2
20210226150534 51 293 14.0 21.0 0.00 0.00 0.00 75 1027.2
20210226145532 50 293 13.0 18.0 0.00 0.00 0.00 79 1027.2
20210226144529 51 293 18.0 24.0 0.00 0.00 0.00 75 1027.2
20210226143533 51 293 15.0 19.0 0.00 0.00 0.00 75 1027.3
20210226142642 52 293 13.0 17.0 0.00 0.00 0.00 75 1027.3
20210226141529 53 293 12.0 16.0 0.00 0.00 0.00 74 1027.1
20210226140534 52 293 14.0 18.0 0.00 0.00 0.00 77 1027.1
20210226135532 52 293 15.0 19.0 0.00 0.00 0.00 75 1027.3
20210226134534 51 293 15.0 20.0 0.00 0.00 0.00 76 1027.2
20210226133535 53 293 17.0 22.0 0.00 0.00 0.00 74 1027.2
20210226132620 52 293 13.0 17.0 0.00 0.00 0.00 75 1027.3
20210226131528 53 293 15.0 19.0 0.00 0.00 0.00 75 1027.2
20210226130554 53 293 13.0 17.0 0.00 0.00 0.00 73 1027.3
20210226125606 54 293 14.0 19.0 0.00 0.00 0.00 73 1027.4
20210226124555 52 293 17.0 23.0 0.00 0.00 0.00 73 1027.4
20210226123530 52 315 16.0 22.0 0.00 0.00 0.00 72 1027.3
20210226122627 54 293 15.0 21.0 0.00 0.00 0.00 71 1027.5
20210226121535 54 270 12.0 17.0 0.00 0.00 0.00 75 1027.3
20210226120557 53 293 13.0 18.0 0.00 0.00 0.00 77 1027.4
20210226115536 51 293 14.0 19.0 0.00 0.00 0.00 78 1027.4
20210226114533 53 293 17.0 22.0 0.00 0.00 0.00 74 1027.4
20210226113530 53 293 15.0 20.0 0.00 0.00 0.00 75 1027.5
20210226112725 52 293 12.0 16.0 0.00 0.00 0.00 79 1027.5
20210226111542 51 293 14.0 18.0 0.00 0.00 0.00 77 1027.7
20210226110553 53 293 16.0 19.0 0.00 0.00 0.00 76 1027.7
20210226105531 52 293 14.0 18.0 0.00 0.00 0.00 78 1027.7
20210226104533 52 293 13.0 17.0 0.00 0.00 0.00 78 1027.6
20210226103532 50 293 12.0 18.0 0.00 0.00 0.00 81 1027.6
20210226102811 50 293 13.0 16.0 0.00 0.00 0.00 81 1027.5
20210226101529 49 293 15.0 23.0 0.00 0.00 0.00 85 1027.4
20210226100531 47 293 13.0 16.0 0.00 0.00 0.00 86 1027.4
20210226095531 46 293 11.0 16.0 0.00 0.00 0.00 89 1027.4
20210226094531 46 270 12.0 15.0 0.00 0.00 0.00 88 1027.1
20210226093531 46 270 12.0 15.0 0.00 0.00 0.00 90 1027.1
20210226092757 43 293 11.0 13.0 0.00 0.00 0.00 91 1027.1
20210226091539 43 293 13.0 16.0 0.00 0.00 0.00 90 1027.2
20210226090530 43 293 13.0 17.0 0.00 0.00 0.00 90 1027.2
20210226085530 43 293 12.0 15.0 0.00 0.00 0.00 90 1027.0
20210226084529 43 293 10.0 13.0 0.00 0.00 0.00 90 1026.9
20210226083529 43 293 11.0 16.0 0.00 0.00 0.00 91 1026.9
20210226082612 43 293 12.0 14.0 0.00 0.00 0.00 91 1026.9
20210226081528 43 270 9.0 13.0 0.00 0.00 0.00 92 1026.9
20210226080533 43 270 8.0 11.0 0.00 0.00 0.00 92 1026.9
20210226075532 43 270 10.0 12.0 0.00 0.00 0.00 93 1026.7
20210226074529 42 293 11.0 13.0 0.00 0.00 0.00 94 1026.6
20210226073533 41 270 10.0 14.0 0.00 0.00 0.00 94 1026.4
20210226072639 40 293 10.0 13.0 0.00 0.00 0.00 94 1026.4
20210226071538 40 293 9.0 13.0 0.00 0.00 0.00 94 1026.3
20210226070533 40 293 9.0 13.0 0.00 0.00 0.00 94 1026.3
20210226065528 40 293 9.0 13.0 0.00 0.00 0.00 94 1026.4
20210226064538 39 293 6.0 9.0 0.00 0.00 0.00 94 1026.3
20210226063531 40 270 6.0 8.0 0.00 0.00 0.00 94 1026.2
20210226062754 40 270 8.0 10.0 0.00 0.00 0.00 94 1026.2
20210226061559 40 270 7.0 9.0 0.00 0.00 0.00 94 1026.1
20210226060546 40 270 6.0 9.0 0.00 0.00 0.00 94 1026.0
20210226055528 40 270 6.0 8.0 0.00 0.00 0.00 94 1026.2
20210226054536 40 270 4.0 6.0 0.00 0.00 0.00 94 1025.9
20210226053529 40 248 5.0 7.0 0.00 0.00 0.00 94 1025.9
20210226052646 40 270 5.0 8.0 0.00 0.00 0.00 94 1025.6
20210226052028 40 270 6.0 8.0 0.00 0.00 0.00 94 1025.6
20210226051033 40 293 4.0 7.0 0.00 0.00 0.00 94 1025.5
20210226050031 40 270 3.0 6.0 0.00 0.00 0.00 94 1025.5
20210226045137 40 293 4.0 7.0 0.00 0.00 0.00 93 1025.6
20210226044029 40 293 4.0 7.0 0.00 0.00 0.00 93 1025.5
20210226043030 41 293 6.0 9.0 0.00 0.00 0.00 93 1025.6
20210226042036 40 293 5.0 7.0 0.00 0.00 0.00 93 1025.8
20210226041037 40 293 5.0 8.0 0.00 0.00 0.00 93 1025.7
20210226040041 41 293 6.0 9.0 0.00 0.00 0.00 93 1025.8
20210226035035 41 293 4.0 6.0 0.00 0.00 0.00 92 1025.6
20210226034036 42 270 4.0 7.0 0.00 0.00 0.00 92 1025.5
20210226033046 42 293 4.0 6.0 0.00 0.00 0.00 92 1025.4
20210226032033 42 270 6.0 8.0 0.00 0.00 0.00 92 1025.3
20210226031027 42 270 7.0 9.0 0.00 0.00 0.00 92 1025.3
20210226030035 43 270 6.0 8.0 0.00 0.00 0.00 92 1025.4
20210226025336 43 270 7.0 9.0 0.00 0.00 0.00 93 1025.4
20210226024037 43 270 9.0 12.0 0.00 0.00 0.00 92 1025.6
20210226023105 43 270 8.0 10.0 0.00 0.00 0.00 93 1025.6
20210226022028 43 270 6.0 8.0 0.00 0.00 0.00 93 1025.4
20210226021036 43 270 7.0 9.0 0.00 0.00 0.00 93 1025.5
20210226020032 43 270 7.0 9.0 0.00 0.00 0.00 93 1025.7
20210226015348 43 270 6.0 7.0 0.00 0.00 0.00 93 1025.6
20210226014030 43 270 5.0 8.0 0.00 0.00 0.00 93 1025.5
20210226013045 43 270 4.0 6.0 0.00 0.00 0.00 93 1025.6
20210226012034 44 293 5.0 9.0 0.00 0.00 0.00 93 1025.6
20210226011038 44 270 8.0 10.0 0.00 0.00 0.00 93 1025.7
20210226010032 44 270 8.0 11.0 0.00 0.00 0.00 93 1025.6
20210226005338 45 270 8.0 11.0 0.00 0.00 0.00 93 1025.5
20210226004035 45 270 6.0 8.0 0.00 0.00 0.00 93 1025.5
20210226003033 45 270 5.0 7.0 0.00 0.00 0.00 93 1025.6
20210226002439 45 293 7.0 10.0 0.00 0.00 0.00 93 1025.5
20210226001043 46 315 6.0 8.0 0.00 0.00 0.00 93 1025.3
20210226000057 46 315 5.0 7.0 0.00 0.00 0.00 93 1025.2
20210225235042 46 293 5.0 7.0 0.00 0.00 0.00 94 1025.2
20210225234031 46 270 6.0 9.0 0.00 0.00 0.00 93 1025.2
20210225233049 46 293 4.0 7.0 0.00 0.00 0.00 93 1025.0
20210225232034 46 315 8.0 12.0 0.00 0.00 0.00 94 1025.0
20210225231033 46 293 6.0 9.0 0.00 0.00 0.00 94 1024.9
20210225230039 46 315 6.0 9.0 0.00 0.00 0.00 94 1024.9
20210225225044 46 293 4.0 5.0 0.00 0.00 0.00 93 1024.8
20210225224041 45 315 3.0 4.0 0.00 0.00 0.00 93 1024.7
20210225223229 46 315 1.0 2.0 0.00 0.00 0.00 93 1024.7
20210225222036 46 315 2.0 3.0 0.00 0.00 0.00 93 1024.8
20210225221058 46 315 4.0 5.0 0.00 0.00 0.00 93 1024.6
20210225220115 46 315 5.0 7.0 0.00 0.00 0.00 93 1024.5
20210225215030 46 293 5.0 7.0 0.00 0.00 0.00 93 1024.6
20210225214038 46 293 6.0 9.0 0.00 0.00 0.00 93 1024.5
20210225213130 46 293 5.0 7.0 0.00 0.00 0.00 93 1024.6
20210225212106 47 293 5.0 7.0 0.00 0.00 0.00 93 1024.6
20210225211039 47 293 6.0 8.0 0.00 0.00 0.00 93 1024.7
20210225210029 46 293 5.0 8.0 0.00 0.00 0.00 93 1024.5